timestamp,wind_dir_avg,wind_spd_avg,wind_spd_max_dir,wind_spd_gust,battery_voltage,lat,long
2021-09-12 00:04:01+00:00,261.0,12.51,253.0,15.84,12.65,47.59359,-54.27349
2021-09-12 00:14:01+00:00,258.0,11.16,262.0,13.0,12.65,47.59359,-54.27349
2021-09-12 00:24:01+00:00,266.0,12.21,267.0,14.28,12.65,47.59359,-54.27349
2021-09-12 00:34:01+00:00,263.0,10.63,267.0,12.77,12.65,47.59359,-54.27349
2021-09-12 00:44:01+00:00,259.0,11.58,262.0,13.03,12.65,47.59359,-54.27349
2021-09-12 00:54:01+00:00,260.0,10.7,264.0,12.59,12.65,47.59359,-54.27349
2021-09-12 01:04:01+00:00,264.0,10.18,262.0,12.4,12.65,47.59359,-54.27349
2021-09-12 01:14:01+00:00,266.0,10.45,268.0,12.03,12.65,47.59359,-54.27349
2021-09-12 01:24:01+00:00,268.0,10.41,270.0,12.27,12.65,47.59359,-54.27349
2021-09-12 01:34:01+00:00,264.0,10.17,264.0,13.49,12.65,47.59359,-54.27349
2021-09-12 01:44:01+00:00,264.0,8.68,269.0,9.98,12.65,47.59359,-54.27349
2021-09-12 01:54:01+00:00,265.0,10.5,268.0,12.54,12.65,47.59359,-54.27349
2021-09-12 02:04:01+00:00,273.0,9.37,272.0,10.85,12.65,47.59359,-54.27349
2021-09-12 02:14:01+00:00,270.0,10.03,272.0,11.68,12.65,47.59359,-54.27349
2021-09-12 02:24:01+00:00,273.0,10.3,271.0,12.54,12.65,47.59359,-54.27349
2021-09-12 02:34:01+00:00,273.0,9.05,273.0,10.41,12.65,47.59359,-54.27349
2021-09-12 02:44:01+00:00,274.0,8.05,273.0,10.0,12.65,47.59359,-54.27349
2021-09-12 02:54:01+00:00,262.0,8.56,258.0,9.93,12.65,47.59359,-54.27349
2021-09-12 03:04:01+00:00,257.0,9.08,255.0,10.64,12.65,47.59359,-54.27349
2021-09-12 03:14:00+00:00,253.0,7.98,260.0,8.93,12.57,47.59359,-54.27349
2021-09-12 03:24:00+00:00,261.0,8.17,263.0,9.16,12.57,47.59359,-54.27349
2021-09-12 03:34:00+00:00,258.0,7.14,265.0,8.53,12.57,47.59359,-54.27349
2021-09-12 03:44:00+00:00,257.0,7.27,252.0,7.9,12.57,47.59359,-54.27349
2021-09-12 03:54:00+00:00,250.0,7.93,254.0,8.7,12.57,47.59359,-54.27349
2021-09-12 04:04:00+00:00,246.0,8.73,249.0,9.62,12.57,47.59359,-54.27349
2021-09-12 04:14:01+00:00,245.0,8.57,238.0,9.55,12.57,47.59359,-54.27349
2021-09-12 04:24:01+00:00,246.0,9.25,248.0,10.37,12.57,47.59359,-54.27349
2021-09-12 04:34:01+00:00,247.0,9.28,245.0,10.35,12.57,47.59359,-54.27349
2021-09-12 04:44:01+00:00,257.0,8.72,259.0,10.14,12.57,47.59359,-54.27349
2021-09-12 04:54:01+00:00,258.0,7.77,259.0,8.57,12.57,47.59359,-54.27349
2021-09-12 05:04:01+00:00,263.0,6.79,262.0,8.18,12.57,47.59359,-54.27349
2021-09-12 05:14:01+00:00,263.0,7.56,261.0,8.39,12.57,47.59359,-54.27349
2021-09-12 05:24:01+00:00,277.0,6.82,282.0,8.08,12.57,47.59359,-54.27349
2021-09-12 05:34:01+00:00,264.0,5.81,270.0,7.5,12.57,47.59359,-54.27349
2021-09-12 05:44:01+00:00,271.0,7.35,268.0,8.08,12.57,47.59359,-54.27349
2021-09-12 05:54:01+00:00,282.0,8.12,288.0,9.06,12.57,47.59359,-54.27349
2021-09-12 06:04:01+00:00,282.0,8.23,287.0,9.17,12.57,47.59359,-54.27349
2021-09-12 06:14:01+00:00,280.0,8.13,277.0,8.94,12.57,47.59359,-54.27349
2021-09-12 06:24:01+00:00,279.0,6.65,290.0,7.67,12.57,47.59359,-54.27349
2021-09-12 06:34:01+00:00,271.0,5.41,271.0,6.24,12.57,47.59359,-54.27349
2021-09-12 06:44:01+00:00,263.0,6.32,265.0,7.03,12.57,47.59359,-54.27349
2021-09-12 06:54:01+00:00,266.0,7.24,262.0,7.91,12.57,47.59359,-54.27349
2021-09-12 07:04:01+00:00,255.0,7.12,254.0,7.9,12.57,47.59359,-54.27349
2021-09-12 07:14:01+00:00,264.0,6.77,263.0,7.51,12.57,47.59359,-54.27349
2021-09-12 07:24:01+00:00,243.0,5.99,251.0,6.56,12.57,47.59359,-54.27349
2021-09-12 07:34:01+00:00,239.0,7.96,238.0,8.78,12.57,47.59359,-54.27349
2021-09-12 07:44:01+00:00,243.0,8.78,243.0,9.41,12.57,47.59359,-54.27349
2021-09-12 07:54:01+00:00,249.0,7.61,251.0,8.4,12.57,47.59359,-54.27349
2021-09-12 08:04:01+00:00,242.0,7.32,242.0,7.9,12.57,47.59359,-54.27349
2021-09-12 08:14:01+00:00,256.0,6.26,256.0,6.81,12.49,47.59359,-54.27349
2021-09-12 08:24:01+00:00,250.0,7.92,251.0,8.59,12.49,47.59359,-54.27349
2021-09-12 08:34:01+00:00,266.0,7.33,269.0,8.2,12.49,47.59359,-54.27349
2021-09-12 08:44:01+00:00,255.0,8.21,253.0,9.13,12.49,47.59359,-54.27349
2021-09-12 08:54:01+00:00,259.0,8.31,258.0,9.24,12.49,47.59359,-54.27349
2021-09-12 09:04:01+00:00,265.0,7.28,268.0,8.33,12.49,47.59359,-54.27349
2021-09-12 09:14:00+00:00,268.0,6.38,269.0,7.01,12.49,47.59359,-54.27349
2021-09-12 09:24:00+00:00,272.0,7.49,274.0,8.15,12.49,47.59359,-54.27349
2021-09-12 09:34:00+00:00,270.0,5.87,269.0,6.62,12.49,47.59359,-54.27349
2021-09-12 09:44:00+00:00,277.0,6.26,273.0,6.93,12.49,47.59359,-54.27349
2021-09-12 09:54:00+00:00,295.0,5.83,295.0,6.6,12.49,47.59359,-54.27349
2021-09-12 10:04:00+00:00,281.0,5.64,274.0,6.44,12.49,47.59359,-54.27349
2021-09-12 10:14:01+00:00,279.0,6.87,278.0,8.03,13.37,47.59359,-54.27349
2021-09-12 10:24:01+00:00,277.0,6.32,279.0,7.06,13.37,47.59359,-54.27349
2021-09-12 10:34:01+00:00,278.0,5.31,276.0,6.19,13.37,47.59359,-54.27349
2021-09-12 10:44:01+00:00,267.0,5.44,270.0,6.17,13.37,47.59359,-54.27349
2021-09-12 10:54:01+00:00,268.0,5.04,268.0,6.07,13.37,47.59359,-54.27349
2021-09-12 11:04:01+00:00,265.0,4.86,261.0,5.95,13.37,47.59359,-54.27349
2021-09-12 11:14:01+00:00,263.0,3.72,263.0,4.69,13.92,47.59359,-54.27349
2021-09-12 11:24:01+00:00,221.0,4.03,226.0,4.8,13.92,47.59359,-54.27349
2021-09-12 11:34:01+00:00,229.0,3.72,232.0,4.59,13.92,47.59359,-54.27349
2021-09-12 11:44:01+00:00,240.0,3.55,236.0,4.25,13.92,47.59359,-54.27349
2021-09-12 11:54:01+00:00,283.0,1.78,286.0,2.2,13.92,47.59359,-54.27349
2021-09-12 12:04:01+00:00,261.0,3.81,261.0,4.37,13.92,47.59359,-54.27349
2021-09-12 12:14:01+00:00,230.0,3.43,240.0,4.3,14.16,47.59359,-54.27349
2021-09-12 12:24:01+00:00,228.0,3.68,232.0,4.14,14.16,47.59359,-54.27349
2021-09-12 12:34:01+00:00,220.0,4.44,224.0,5.38,14.16,47.59359,-54.27349
2021-09-12 12:44:01+00:00,230.0,4.66,223.0,5.19,14.16,47.59359,-54.27349
2021-09-12 12:54:01+00:00,234.0,4.55,232.0,5.21,14.16,47.59359,-54.27349
2021-09-12 13:04:01+00:00,216.0,4.18,216.0,4.8,14.16,47.59359,-54.27349
2021-09-12 13:14:01+00:00,211.0,5.45,209.0,6.29,14.32,47.59359,-54.27349
2021-09-12 13:24:01+00:00,215.0,6.0,220.0,6.95,14.32,47.59359,-54.27349
2021-09-12 13:34:01+00:00,204.0,6.53,205.0,7.12,14.32,47.59359,-54.27349
2021-09-12 13:44:01+00:00,213.0,5.83,218.0,6.59,14.32,47.59359,-54.27349
2021-09-12 13:54:01+00:00,210.0,5.81,212.0,6.58,14.32,47.59359,-54.27349
2021-09-12 14:04:01+00:00,196.0,6.2,196.0,6.67,14.32,47.59359,-54.27349
2021-09-12 14:14:01+00:00,206.0,5.71,208.0,6.55,13.6,47.59359,-54.27349
2021-09-12 14:24:01+00:00,198.0,5.21,198.0,5.97,13.6,47.59359,-54.27349
2021-09-12 14:34:01+00:00,194.0,5.42,197.0,6.09,13.6,47.59359,-54.27349
2021-09-12 14:44:01+00:00,199.0,6.63,200.0,7.31,13.6,47.59359,-54.27349
2021-09-12 14:54:01+00:00,204.0,5.54,214.0,6.88,13.6,47.59359,-54.27349
2021-09-12 15:04:01+00:00,233.0,5.89,233.0,6.79,13.6,47.59359,-54.27349
2021-09-12 15:14:01+00:00,242.0,6.89,239.0,7.75,14.24,47.59359,-54.27349
2021-09-12 15:24:01+00:00,206.0,6.95,211.0,7.75,14.24,47.59359,-54.27349
2021-09-12 15:34:01+00:00,208.0,8.49,210.0,9.91,14.24,47.59359,-54.27349
2021-09-12 15:44:01+00:00,214.0,9.15,216.0,10.56,14.24,47.59359,-54.27349
2021-09-12 15:54:01+00:00,214.0,10.19,216.0,11.28,14.24,47.59359,-54.27349
2021-09-12 16:04:01+00:00,210.0,9.67,214.0,10.73,14.24,47.59359,-54.27349
2021-09-12 16:14:01+00:00,212.0,10.33,211.0,11.18,14.32,47.59359,-54.27349
2021-09-12 16:24:01+00:00,208.0,9.53,212.0,11.41,14.32,47.59359,-54.27349
2021-09-12 16:34:01+00:00,210.0,10.22,211.0,11.41,14.32,47.59359,-54.27349
2021-09-12 16:44:01+00:00,210.0,10.66,211.0,12.0,14.32,47.59359,-54.27349
2021-09-12 16:54:01+00:00,208.0,9.99,205.0,11.47,14.32,47.59359,-54.27349
2021-09-12 17:04:01+00:00,211.0,10.62,213.0,11.89,14.32,47.59359,-54.27349
2021-09-12 17:14:01+00:00,211.0,10.55,212.0,11.97,14.32,47.59359,-54.27349
2021-09-12 17:24:01+00:00,213.0,9.78,213.0,10.99,14.32,47.59359,-54.27349
2021-09-12 17:34:01+00:00,212.0,9.88,212.0,11.07,14.32,47.59359,-54.27349
2021-09-12 17:44:01+00:00,213.0,9.48,215.0,10.35,14.32,47.59359,-54.27349
2021-09-12 17:54:01+00:00,217.0,8.76,216.0,10.07,14.32,47.59359,-54.27349
2021-09-12 18:04:01+00:00,214.0,8.35,222.0,9.62,14.32,47.59359,-54.27349
2021-09-12 18:14:01+00:00,213.0,10.1,212.0,11.07,14.08,47.59359,-54.27349
2021-09-12 18:24:01+00:00,217.0,9.5,221.0,11.3,14.08,47.59359,-54.27349
2021-09-12 18:34:01+00:00,218.0,9.98,218.0,11.87,14.08,47.59359,-54.27349
2021-09-12 18:44:01+00:00,218.0,10.06,217.0,11.24,14.08,47.59359,-54.27349
2021-09-12 18:54:01+00:00,219.0,9.83,215.0,11.16,14.08,47.59359,-54.27349
2021-09-12 19:04:01+00:00,219.0,9.97,219.0,11.19,14.08,47.59359,-54.27349
2021-09-12 19:14:01+00:00,214.0,9.8,217.0,11.59,13.84,47.59359,-54.27349
2021-09-12 19:24:01+00:00,214.0,10.02,215.0,11.76,13.84,47.59359,-54.27349
2021-09-12 19:34:01+00:00,214.0,10.11,219.0,11.48,13.84,47.59359,-54.27349
2021-09-12 19:44:01+00:00,217.0,9.9,220.0,11.09,13.84,47.59359,-54.27349
2021-09-12 19:54:01+00:00,217.0,10.49,219.0,11.73,13.84,47.59359,-54.27349
2021-09-12 20:04:01+00:00,215.0,10.24,214.0,11.56,13.84,47.59359,-54.27349
2021-09-12 20:14:01+00:00,214.0,10.08,214.0,11.39,13.84,47.59359,-54.27349
2021-09-12 20:24:01+00:00,214.0,9.51,226.0,11.88,13.84,47.59359,-54.27349
2021-09-12 20:34:01+00:00,216.0,8.48,206.0,9.99,13.84,47.59359,-54.27349
2021-09-12 20:44:01+00:00,217.0,8.26,218.0,9.98,13.84,47.59359,-54.27349
2021-09-12 20:54:01+00:00,218.0,9.3,227.0,10.6,13.84,47.59359,-54.27349
2021-09-12 21:04:01+00:00,212.0,8.92,219.0,10.09,13.84,47.59359,-54.27349
2021-09-12 21:14:01+00:00,218.0,8.6,223.0,9.96,13.37,47.59359,-54.27349
2021-09-12 21:24:01+00:00,217.0,9.13,215.0,10.54,13.37,47.59359,-54.27349
2021-09-12 21:34:01+00:00,214.0,8.36,214.0,10.15,13.37,47.59359,-54.27349
2021-09-12 21:44:01+00:00,217.0,7.62,224.0,8.92,13.37,47.59359,-54.27349
2021-09-12 21:54:01+00:00,218.0,8.9,221.0,10.12,13.37,47.59359,-54.27349
2021-09-12 22:04:01+00:00,217.0,8.98,217.0,10.35,13.37,47.59359,-54.27349
2021-09-12 22:14:01+00:00,217.0,7.93,227.0,8.96,12.97,47.59359,-54.27349
2021-09-12 22:24:01+00:00,213.0,7.77,209.0,8.82,12.97,47.59359,-54.27349
2021-09-12 22:34:01+00:00,216.0,7.55,219.0,8.8,12.97,47.59359,-54.27349
2021-09-12 22:44:01+00:00,220.0,8.99,220.0,10.14,12.97,47.59359,-54.27349
2021-09-12 22:54:01+00:00,220.0,7.4,216.0,8.67,12.97,47.59359,-54.27349
2021-09-12 23:04:01+00:00,213.0,8.25,212.0,9.56,12.97,47.59359,-54.27349
2021-09-12 23:14:01+00:00,214.0,9.3,219.0,10.17,12.65,47.59359,-54.27349
2021-09-12 23:24:01+00:00,217.0,8.86,223.0,10.57,12.65,47.59359,-54.27349
2021-09-12 23:34:01+00:00,214.0,9.53,218.0,11.52,12.65,47.59359,-54.27349
2021-09-12 23:44:01+00:00,217.0,10.63,216.0,12.26,12.65,47.59359,-54.27349
2021-09-12 23:54:01+00:00,215.0,10.47,218.0,11.76,12.65,47.59359,-54.27349
